Zurück zum Katalog

FENGYUN 1C DEB

AktivPO
NORAD 36647·DEBRIS·🇨🇳 China

Gestartet May 10, 1999 von Taiyuan Satellite Launch Center

Loading…

Nächste Überflüge (nächste 24 Stunden)

TLE

AktuellSource: Space-Track

Epoche: Sep 11, 2026, 09:58 UTC

1 36647U 99025DXR 26254.41541391  .00002318  00000-0  14956-2 0  9999
2 36647  96.1252 307.4463 0235530 223.0697 135.1829 13.90802813342000

Verfolge FENGYUN 1C DEB in Echtzeit mit AllMySat

Download on the App Store